BEIDOU-2 IGSO-2 (C07)

Last updated on Tue Aug 25 2026 00:03:25 GMT+0000 (Coordinated Universal Time)

1 37256U 10068A 26235.78047809 -.00000147 00000+0 00000+0 0 9990 2 37256 47.4250 270.9835 0057892 215.6393 233.6882 1.00260827 57472
UTC large
Height (km)
Speed (km/s)
/
Latitude / Longitude
Inclination (degrees)
Orbital Period (minutes)
Azimuth
Elevation
Range (km)
Doppler Factor

Next 0 passes for location: London (51.5072 / 0.1276)

No passes found over London.
BEIDOU-2 IGSO-2 (C07)